sat.trackr.live / text

‹ back to catalog

TIANYAN 02

NORAD 44882 · 2019-093D

PAYLOAD ACTIVE UNKNOWN

§ Identity

Operator
Country
PRC
Launch date
2019-12-20
Launch site
TAISC
Launch vehicle
Mass (kg)
RCS (m²)

External: N2YO · Heavens-Above · Gunter

§ Orbital elements

Epoch: 2026-09-20T05:11:03.848064Z

Period
95.60 min
Inclination
97.7929°
Eccentricity
0.0014387
Mean motion
15.06204435 rev/d
Perigee alt
537.8 km
Apogee alt
557.8 km
Semi-major
6,925.9 km
B*
3.2673e-4
RAAN
358.9824°
Arg perigee
64.2708°
Mean anomaly
296.0002°
Rev number
36,691

§ Raw data

TIANYAN 021 44882U 19093D   26263.21601676  .00004735  00000+0  32673-3 0  99982 44882  97.7929 358.9824 0014387  64.2708 296.0002 15.06204435366914

JSON: /api/v1/satellites/44882 · /tle

For live sub-satellite position, see the globe view (requires WebGL).

§ Visibility from observer

Set your observer location to see the next 7 days of passes ≥ 10°. The values pass through the URL so the page stays shareable.

No JS? Fill the form by hand. The geolocation button needs JavaScript.

§ Radio — SatNOGS DB

ModeDescriptionDownlinkUplink
FM UHF Unknown 401.550 MHz

1 transmitter · refreshed weekly from db.satnogs.org